Regional Weather Roundup
Issued by NWS

Home | Current Version | Previous Version | Text Only | Print | Product List | Glossary Off
Versions: 1 2 3 4 5 6 7 8 9 10 11 12 13 14 15 16 17 18 19 20 21 22 23 24 25 26 27 28 29 30 31 32 33 34 35 36 37 38 39 40 41 42 43 44 45 46 47 48 49 50

000
ASUS43 KBIS 271001
RWRND

NORTH DAKOTA REGIONAL WEATHER ROUNDUP
NATIONAL WEATHER SERVICE BISMARCK ND
500 AM CDT WED MAY 27 2015

NOTE: "FAIR" INDICATES FEW OR NO CLOUDS BELOW 12,000 FEET WITH NO
SIGNIFICANT WEATHER AND/OR OBSTRUCTIONS TO VISIBILITY.


NDZ001>003-009>011-017-271100-
NORTHWEST NORTH DAKOTA

CITY           SKY/WX    TMP DP  RH WIND       PRES   REMARKS
WILLISTON      PTCLDY    51  44  77 SW5       29.91S
MINOT          CLEAR     59  45  59 SW12      29.88S
MINOT AFB      CLEAR     55  54  97 W9        29.88R
$$

NDZ018>021-031>035-040>046-271100-
SOUTHWEST NORTH DAKOTA

CITY           SKY/WX    TMP DP  RH WIND       PRES   REMARKS
BISMARCK       CLEAR     52  49  89 CALM      29.94R
DICKINSON      CLEAR     49  42  77 S6        29.94S
GARRISON         N/A     55  47  74 W3        29.91R
HETTINGER ARPT CLEAR     44  41  89 CALM      29.97S
$$

NDZ004>008-012>016-024-026-027-054-271100-
NORTHEAST NORTH DAKOTA

CITY           SKY/WX    TMP DP  RH WIND       PRES   REMARKS
GRAND FORKS    CLEAR     55  48  77 NW8       29.82R
GRND FRKS AFB  CLEAR     58  48  69 NW8       29.84R
DEVILS LAKE    MOCLDY    55  46  71 N5        29.89R
$$

NDZ022-023-025-028>030-036>039-047>053-271100-
SOUTHEAST NORTH DAKOTA

CITY           SKY/WX    TMP DP  RH WIND       PRES   REMARKS
FARGO          PTCLDY    56  49  77 CALM      29.82R
JAMESTOWN      CLEAR     56  47  71 W8        29.88R
$$




USA.gov is the U.S. government's official web portal to all federal, state and local government web resources and services.